Regional Weather Roundup
Issued by NWS

Home | Current Version | Previous Version | Text Only | Print | Product List | Glossary Off
Versions: 1 2 3 4 5 6 7 8 9 10 11 12 13 14 15 16 17 18 19 20 21 22 23 24 25 26 27 28 29 30 31 32 33 34 35 36 37 38 39 40 41 42 43 44 45 46 47 48 49 50

000
ASUS43 KOAX 270502
RWRNE

WEATHER ROUNDUP FOR NEBRASKA
NATIONAL WEATHER SERVICE OMAHA NE
1200 AM CDT FRI MAR 27 2015

NOTES: SATELLITE DATA IS BEING USED TO AUGMENT CLOUD COVER ABOVE
       12000 FEET.
       "FAIR" INDICATES FEW OR NO CLOUDS BELOW 12,000 FEET WITH NO
       SIGNIFICANT WEATHER AND/OR OBSTRUCTIONS TO VISIBILITY.

  * THESE STATIONS DO NOT REPORT WEATHER SUCH AS RAIN...SNOW OR FOG.

NEZ001>004-019>022-054>056-270600-
NEBRASKA PANHANDLE

CITY           SKY/WX    TMP DP  RH WIND       PRES   REMARKS
SCOTTSBLUFF    CLOUDY    42  34  73 E5        30.15S
ALLIANCE       CLOUDY    37  28  70 S7        30.16R WCI  32
CHADRON        CLOUDY    41  29  62 SE7       30.16R
KIMBALL        CLOUDY    40  32  73 SW5       30.16R
SIDNEY         CLOUDY    41  31  67 E6        30.17R
$$

NEZ057>060-069>072-079>082-270600-
SOUTHWEST NEBRASKA

CITY           SKY/WX    TMP DP  RH WIND       PRES   REMARKS
NORTH PLATTE   CLOUDY    34  27  75 NE13      30.20R WCI  25
IMPERIAL         N/A     39  28  64 E5        30.19R
MCCOOK         CLOUDY    36  28  73 NE15      30.19R WCI  27
$$

NEZ005>010-023>029-035>040-094-270600-
NORTH CENTRAL NEBRASKA

CITY           SKY/WX    TMP DP  RH WIND       PRES   REMARKS
VALENTINE      CLOUDY    33  26  75 CALM      30.22F
BROKEN BOW     CLOUDY    33  27  78 NE8       30.22R WCI  26
ORD            CLOUDY    33  25  72 N8        30.23R WCI  26
$$

NEZ041-046>049-061>064-073>077-083>087-270600-
SOUTH CENTRAL NEBRASKA

CITY           SKY/WX    TMP DP  RH WIND       PRES   REMARKS
GRAND ISLAND   MOCLDY    29  26  89 N6        30.24R WCI  23
HASTINGS       CLOUDY    33  27  78 NE17      30.21R WCI  22
HEBRON         CLOUDY    35  31  87 NE12      30.22R WCI  26
KEARNEY *      CLOUDY    34  27  75 N12       30.23R WCI  25
$$

NEZ011>018-030>034-042>045-270600-
NORTHEAST NEBRASKA

CITY           SKY/WX    TMP DP  RH WIND       PRES   REMARKS
NORFOLK        CLOUDY    32  29  88 NW8       30.22S WCI  25
ALBION         FAIR      31  26  84 NW5       30.23S WCI  26
BLAIR          MOCLDY    33  30  88 NW6       30.19S WCI  28
COLUMBUS *     CLEAR     30  21  69 NW9       30.24S WCI  22
TEKAMAH        PTCLDY    32  27  81 N13       30.23R WCI  22
$$

NEZ050>053-065>068-078-088>093-270600-
SOUTHEAST NEBRASKA

CITY           SKY/WX    TMP DP  RH WIND       PRES   REMARKS
LINCOLN        CLEAR     33  31  92 N8        30.23S WCI  26
OMAHA EPPLEY   PTCLDY    32  30  92 N7        30.21S WCI  26
FALLS CITY     CLOUDY    36  32  85 N7        30.19R WCI  30
PLATTSMOUTH    CLEAR     31  29  92 NW6       30.20S WCI  25
$$

NEZ044-045-051>053-067-270600-
OMAHA AREA

CITY           SKY/WX    TMP DP  RH WIND       PRES   REMARKS
OMAHA EPPLEY   PTCLDY    32  30  92 N7        30.21S WCI  26
BLAIR          MOCLDY    33  30  88 NW6       30.19S WCI  28
OFFUTT AFB     CLEAR     31  28  90 NW8       30.20S WCI  23
PLATTSMOUTH    CLEAR     31  29  92 NW6       30.20S WCI  25
$$


USA.gov is the U.S. government's official web portal to all federal, state and local government web resources and services.